Regional Weather Roundup
Issued by NWS Kansas City/Pleasant Hill, MO

Home | Current Version | Previous Version | Text Only | Print | Product List | Glossary On
Versions: 1 2 3 4 5 6 7 8 9 10 11 12 13 14 15 16 17 18 19 20 21 22 23 24 25 26 27 28
000
ASUS43 KEAX 051610
RWREAX

WEATHER ROUNDUP FOR EASTERN KANSAS AND NORTHWEST MISSOURI
NATIONAL WEATHER SERVICE KANSAS CITY/PLEASANT HILL MO
1100 AM CDT THU MAY 05 2016

KSZ040-057-103>105-MOZ028-029-037-043-051700-
...KANSAS CITY METROPOLITAN AREA...

CITY           SKY/WX    TMP DP  RH WIND       PRES   REMARKS
K.C. INTL      PTSUNNY   65  38  36 NE3       30.10R
K.C. DOWNTOWN  SUNNY     66  36  32 VRB3      30.09S
LEES SUMMIT    SUNNY     64  38  38 CALM      30.10R
OLATHE - IXD   SUNNY     65  44  46 VRB7      30.11R
OLATHE - OJC   SUNNY     65  40  39 CALM      30.10R
LAWRENCE       SUNNY     67  45  45 VRB5      30.10S

$$

MOZ001>008-011>017-020>025-030>033-038>040-044>046-053-054-051700-
...NORTHERN AND CENTRAL MISSOURI...

CITY           SKY/WX    TMP DP  RH WIND       PRES   REMARKS
ST. JOSEPH     SUNNY     66  35  31 CALM      30.10R
MOSBY          SUNNY     64  34  32 CALM      30.10R
WARRENSBURG    SUNNY     64  36  34 N6        30.09R
WHITEMAN AFB   MOSUNNY   64  38  38 N12       30.08
CLINTON        SUNNY     64  39  39 N8        30.09S
SEDALIA        SUNNY     66  39  37 N7        30.10R
WARSAW         NOT AVBL
CHILLICOTHE      N/A     64  39  39 VRB3      30.10S
KIRKSVILLE     SUNNY     60  37  42 N12       30.09S

$$

MOZ041-047>049-056>058-063>065-088>090-097-051700-
...EASTERN AND SOUTHERN MISSOURI...

CITY           SKY/WX    TMP DP  RH WIND       PRES   REMARKS
ST. LOUIS INTL MOSUNNY   59  38  45 N15       30.03S
SPIRIT OF STL  MOSUNNY   58  42  55 N12       30.04R
COLUMBIA       SUNNY     61  36  39 N10       30.07R
JEFFERSON CITY SUNNY     62  32  32 NW10G22   30.06S
ROLLA          SUNNY     60  40  47 NW14      30.04R
OSAGE BEACH    SUNNY     64  34  32 N9        30.07S
SPRINGFIELD    SUNNY     66  40  38 NW16      30.06S
BRANSON        SUNNY     66  39  37 N13G20    30.07S
JOPLIN         SUNNY     68  44  42 NW13      30.09S
WEST PLAINS    SUNNY     64  34  32 NW18G25   30.04S

$$

IAZ060-094-KSZ022-034>040-054-083-096-NEZ052-066-093-051700-
...KANSAS...SOUTHEAST NEBRASKA AND IOWA...

CITY           SKY/WX    TMP DP  RH WIND       PRES   REMARKS
TOPEKA         SUNNY     69  44  40 W7        30.10S
MANHATTAN      SUNNY     70  45  40 SE3       30.11F
EMPORIA        SUNNY     69  40  34 NW7       30.11S
CHANUTE        SUNNY     70  41  34 NW7       30.10F
WICHITA        SUNNY     71  40  32 N5        30.12F
OMAHA          MOSUNNY   66  44  45 SE3       30.09S
LINCOLN        SUNNY     69  39  33 CALM      30.11S
FALLS CITY     SUNNY     66  45  46 CALM      30.10R
LAMONI         SUNNY     60  35  39 CALM      30.09S
DES MOINES     CLOUDY    61  31  32 E3        30.11R

$$





USA.gov is the U.S. government's official web portal to all federal, state and local government web resources and services.